Wetbulb
45.00 45.35 45.40 44.54 44.15 43.97 43.64 42.88 41.13 40.87 41.32 41.37 41.50 41.30 41.08 41.18 40.97 41.20 41.40 41.10 40.91 40.83 40.92 41.09 41.46 41.39 41.36 41.33 41.48 41.51 41.43 41.36 41.32 40.76 40.24 40.52 40.92 40.96 40.72 40.60 40.09 39.77 39.45 39.03 38.56 38.28 37.87 37.25 36.82 36.81 36.68 36.09 35.48 35.11 34.91 35.04 34.67 34.63 34.74 35.04 35.18 35.05 34.78 34.49 34.61 34.76 35.00 35.24 35.91
45.60 45.29 44.34 42.30 41.92 42.23 42.42 41.49 40.41 40.44 40.95 41.47 41.52 41.29 41.01 41.15 41.08 41.20 41.32 41.05 41.24 41.25 41.10 41.18 40.72 40.84 41.00 41.20 41.24 41.24 41.20 41.08 41.08 40.80 40.64 40.84 40.88 40.76 40.68 40.33 40.01 39.61 39.22 38.91 38.41 38.16 37.79 36.93 36.44 36.49 36.43 36.15 35.51 35.00 34.74 34.62 34.16 34.15 34.18 34.15 34.61 35.00 35.23 35.39 35.52 35.57 35.66 35.95 36.18
45.82 44.74 43.26 41.95 41.94 42.21 42.20 41.27 40.87 40.52 40.44 41.05 41.34 41.18 41.14 41.21 41.33 41.48 41.51 41.47 41.18 40.91 40.92 41.03 40.40 40.56 41.00 41.12 41.21 41.21 41.08 41.04 40.92 40.84 40.80 40.84 40.76 40.76 40.52 40.17 39.73 39.26 38.76 38.48 38.01 37.68 37.29 36.59 36.31 36.20 36.34 36.37 35.50 35.00 34.90 35.04 34.86 34.72 34.52 34.23 35.05 35.77 36.28 36.69 36.22 36.04 36.20 36.72 36.28
44.35 43.42 42.42 41.97 41.99 42.27 42.22 41.27 40.48 40.08 40.40 41.44 41.03 40.84 40.96 41.26 41.49 41.51 41.35 41.10 40.67 40.56 40.64 40.60 40.21 40.36 40.71 40.91 40.88 40.92 40.76 40.28 40.52 40.60 40.64 40.60 40.52 40.32 40.05 39.65 39.23 38.80 38.44 38.16 37.64 37.16 36.69 36.36 36.44 36.43 36.27 35.59 34.93 34.89 35.38 35.96 35.29 35.13 35.23 35.16 35.85 36.02 36.18 36.75 36.50 36.62 36.83 36.83 36.21
42.45 41.65 41.14 41.27 41.53 42.16 42.26 40.72 40.29 40.44 40.96 41.83 41.79 41.46 41.27 41.03 41.22 41.18 40.98 40.79 40.71 40.76 40.84 40.48 40.36 40.33 40.35 40.71 40.64 40.56 40.44 40.28 39.52 39.80 40.25 40.09 39.81 39.46 39.11 38.80 38.60 38.36 38.12 37.73 37.32 36.93 36.72 36.41 36.74 36.69 36.14 35.29 35.98 36.09 35.93 35.43 35.20 35.21 35.50 36.26 36.34 36.43 36.55 36.60 36.77 36.81 36.81 36.72 36.30
40.77 40.39 40.40 40.54 41.20 41.64 41.65 40.80 40.76 41.33 41.89 41.93 41.24 40.96 40.87 41.01 41.08 41.04 40.82 40.63 40.56 40.60 40.32 39.71 39.80 39.75 39.94 40.64 40.44 40.28 40.28 40.32 39.91 39.79 39.64 39.13 38.77 38.46 38.28 38.23 38.14 37.93 37.80 37.49 37.11 36.76 36.51 36.25 36.89 36.83 36.51 36.38 35.68 35.47 35.44 34.99 34.98 34.91 35.12 35.73 36.13 36.28 36.24 36.04 36.42 36.49 36.47 36.14 35.88
40.25 40.20 40.31 40.51 41.03 41.24 41.24 41.08 41.57 41.73 41.65 41.20 40.76 40.44 40.36 40.59 40.59 40.40 40.29 40.37 40.48 40.25 39.76 39.28 39.72 39.84 39.92 40.04 39.96 39.84 39.80 39.75 39.58 39.27 38.77 38.17 37.77 37.69 37.62 37.74 37.58 37.46 37.41 37.24 36.99 36.85 36.64 36.00 36.79 36.83 36.54 36.22 36.44 35.78 34.80 34.78 34.63 34.47 34.60 34.80 35.61 35.91 35.61 34.57 35.37 35.65 35.60 34.94 34.92
39.89 39.81 39.85 40.32 40.67 40.79 41.00 40.76 41.16 41.31 41.37 41.21 40.79 40.48 40.44 40.33 40.21 40.21 40.13 40.05 39.93 39.62 39.42 39.61 40.09 40.17 39.89 39.56 39.20 39.11 38.98 38.90 38.80 38.55 38.17 37.99 37.72 37.64 37.61 37.53 37.48 37.36 37.27 37.27 37.17 37.09 36.89 36.75 36.83 36.62 36.26 36.00 36.28 35.75 34.93 34.10 33.92 33.82 33.85 34.00 34.89 34.88 34.73 35.02 34.30 34.39 34.49 33.86 33.83
39.15 39.19 39.46 40.24 40.47 40.55 40.55 40.52 40.83 41.14 41.18 40.87 40.64 40.52 40.44 40.21 40.01 39.89 39.77 39.54 39.18 39.03 39.26 39.62 39.73 39.81 39.72 39.27 38.95 38.82 38.75 38.70 38.44 38.26 38.11 37.99 37.88 37.80 37.69 37.69 37.50 37.42 37.33 37.32 37.19 36.75 36.43 36.58 36.44 36.02 35.74 35.84 35.68 34.99 34.11 33.26 32.91 32.58 32.73 33.17 33.46 33.62 33.71 33.52 33.23 33.30 33.48 33.41 33.33
38.88 39.00 39.38 40.00 39.89 40.05 40.24 40.36 40.90 40.95 40.83 40.48 40.25 39.89 39.41 38.89 39.25 39.41 39.38 39.10 38.74 38.90 39.22 39.41 39.65 39.61 39.32 39.02 38.90 38.95 38.90 38.76 38.57 38.23 37.92 37.81 37.66 37.51 37.51 37.55 37.25 37.07 36.83 36.48 36.07 35.44 34.93 34.90 34.54 33.99 33.62 33.39 33.14 32.72 32.25 32.13 31.75 31.51 31.71 32.88 32.52 32.14 31.96 32.33 32.48 32.54 32.67 32.81 32.84
38.65 38.57 38.88 39.42 39.42 39.61 39.96 40.12 40.45 40.50 40.35 40.08 39.69 39.42 39.14 38.75 39.10 39.11 38.99 38.91 38.90 39.01 39.14 39.34 39.61 39.45 39.14 38.93 39.02 38.99 38.88 38.64 38.29 37.90 37.49 37.13 36.77 36.59 36.45 36.37 35.90 35.57 35.17 34.51 34.09 33.54 33.04 32.85 32.39 31.87 31.60 32.00 31.98 31.81 31.66 31.37 31.10 30.88 31.00 31.58 31.46 31.21 31.21 31.58 31.94 32.05 32.23 32.18 32.19
38.42 38.19 38.31 38.61 38.76 39.14 39.48 39.78 39.84 39.85 39.71 39.53 39.37 39.38 39.42 39.46 39.30 39.03 38.92 39.11 38.99 38.95 39.03 39.38 39.69 39.58 39.27 39.15 39.00 38.76 38.40 38.01 37.41 36.93 36.43 35.90 35.40 35.01 34.75 34.49 34.17 34.02 33.81 33.60 33.29 33.14 32.99 32.53 32.11 31.82 31.56 31.55 31.93 32.10 31.93 31.44 31.13 30.92 30.94 30.87 30.99 31.12 31.25 31.45 31.70 32.17 32.42 32.12 31.91
38.15 38.04 38.00 38.04 38.42 38.93 39.26 39.25 39.37 39.26 39.16 38.94 38.79 38.87 38.99 39.07 38.92 38.76 38.72 39.03 38.64 38.57 38.61 39.06 39.25 39.26 39.07 38.95 38.86 38.54 38.03 37.54 36.92 36.50 36.07 35.40 34.98 34.61 34.31 34.19 34.14 34.18 34.20 34.11 33.62 33.64 33.54 33.15 32.58 32.35 32.09 31.76 32.27 32.16 31.81 31.33 31.15 31.08 31.06 30.79 30.85 30.91 31.03 31.20 31.35 31.48 31.55 31.21 31.58
37.70 37.78 37.70 37.70 38.11 38.59 38.95 38.74 38.85 38.78 38.60 38.26 38.08 38.08 38.27 38.46 38.11 38.03 38.11 38.30 38.00 37.89 37.85 38.11 38.30 38.41 38.52 38.47 38.34 37.99 37.54 37.32 36.82 36.29 35.83 35.44 35.14 34.87 34.75 35.04 34.95 35.03 35.09 34.83 34.18 33.78 33.62 33.49 32.90 32.56 32.38 32.06 32.03 31.72 31.43 31.22 30.95 30.81 30.70 30.56 30.51 30.56 30.66 30.86 30.86 30.74 30.59 30.55 30.71
37.25 37.48 37.63 37.55 37.55 37.93 38.29 38.34 38.45 38.38 38.19 37.82 37.67 37.70 37.74 37.74 37.47 37.41 37.40 37.32 37.21 37.21 37.40 37.63 37.70 37.70 37.81 37.94 37.78 37.59 37.40 37.15 36.55 36.05 35.61 35.23 35.14 35.20 35.31 35.54 35.49 35.56 35.59 35.39 34.58 34.03 33.68 33.39 33.16 32.90 32.71 32.48 32.19 32.02 31.77 31.41 31.07 30.90 30.76 30.70 30.51 30.46 30.49 30.42 30.32 30.22 30.22 30.10 30.23
37.18 37.33 37.59 37.67 37.40 37.36 37.66 38.08 38.23 38.12 37.78 37.51 37.44 37.44 37.40 37.29 37.16 37.09 36.96 36.87 37.00 37.05 37.21 37.36 37.33 37.40 37.51 37.44 37.47 37.39 37.27 36.88 36.26 35.75 35.47 35.49 35.52 35.70 35.78 35.85 35.76 35.65 35.45 35.30 34.65 34.12 33.79 33.59 33.45 33.07 32.77 32.48 32.32 32.21 32.03 31.84 31.37 31.03 30.86 30.70 30.65 30.60 30.55 30.35 30.25 30.16 30.04 30.03 29.79
37.03 37.25 37.36 37.59 37.43 37.32 37.40 37.70 37.85 37.74 37.55 37.21 37.21 37.21 37.12 37.16 37.04 36.78 36.54 36.66 36.89 36.91 36.86 36.94 37.14 37.33 37.44 37.32 37.33 37.07 36.70 36.41 35.91 35.75 35.74 35.96 35.92 35.99 35.94 35.86 35.70 35.47 35.12 34.77 34.39 34.20 33.96 33.62 33.48 33.10 32.63 32.30 32.24 32.08 31.84 31.76 31.46 31.10 30.84 30.74 30.72 30.67 30.67 30.70 30.65 30.52 30.31 30.19 29.87
36.98 37.17 37.28 37.43 37.40 37.40 37.43 37.47 37.44 37.36 37.21 37.10 37.13 37.20 37.15 37.14 37.07 36.87 36.71 36.78 37.14 37.04 36.83 36.91 37.27 37.35 37.28 37.04 36.77 36.36 36.01 35.82 35.69 35.81 35.97 36.24 36.24 36.20 36.04 35.80 35.56 35.17 34.79 34.40 34.17 34.01 33.94 33.86 33.69 33.29 32.88 32.42 32.24 32.14 32.01 31.72 31.53 31.27 31.04 30.91 30.91 30.91 30.88 30.91 30.88 30.90 30.79 30.55 30.63
37.40 37.51 37.59 37.55 37.70 37.70 37.51 37.40 37.32 37.29 37.29 37.21 37.28 37.35 37.42 37.34 37.23 37.12 37.00 36.92 37.20 37.22 37.14 37.09 36.98 36.80 36.46 36.12 35.70 35.55 35.43 35.53 35.55 35.88 36.08 36.29 36.29 36.13 35.85 35.53 35.14 34.86 34.55 34.36 34.24 34.12 34.03 33.90 33.74 33.41 33.04 32.88 32.65 32.31 32.05 31.73 31.66 31.45 31.24 31.14 31.06 31.00 31.08 30.97 30.88 31.11 31.15 31.15 31.25
37.78 37.89 37.93 38.08 38.12 37.85 37.55 37.44 37.48 37.36 37.21 37.03 36.95 36.95 36.90 36.79 36.75 36.68 36.68 36.72 36.86 36.96 36.86 36.35 35.92 35.60 35.41 35.29 35.20 35.19 35.46 35.80 35.95 36.04 36.13 36.17 35.97 35.74 35.42 35.07 34.79 34.55 34.43 34.39 34.39 34.30 34.13 34.04 33.71 33.39 33.17 32.81 32.55 32.29 32.03 31.82 31.66 31.44 31.37 31.43 31.34 31.17 31.11 31.10 31.20 31.19 31.23 31.30 31.43
37.85 37.97 38.00 38.08 37.74 37.33 37.07 37.07 36.99 36.81 36.51 36.35 36.31 36.30 36.22 36.37 36.64 36.72 36.80 36.79 36.88 36.73 36.44 35.99 35.61 35.57 35.42 35.39 35.43 35.58 35.66 35.93 35.95 35.88 35.85 35.64 35.32 35.09 35.02 34.99 34.78 34.78 34.75 34.62 34.55 34.33 34.03 33.90 33.63 33.33 33.02 32.67 32.40 32.14 31.90 31.82 31.64 31.29 31.17 31.33 31.37 31.23 31.17 31.34 31.44 31.64 31.87 32.07 32.20
37.29 37.48 37.55 37.48 37.25 37.00 36.81 36.88 36.85 36.77 36.66 36.61 36.64 36.75 36.85 36.96 37.24 37.46 37.56 37.43 37.29 36.96 36.68 36.59 36.47 36.31 36.11 36.06 35.97 35.88 35.66 35.60 35.41 35.37 35.30 35.15 35.09 35.10 35.06 35.08 34.62 34.45 34.32 34.23 34.15 33.97 33.72 33.54 33.28 32.94 32.65 32.49 32.14 31.93 31.80 31.61 31.34 31.03 30.71 30.60 30.54 30.53 30.63 31.07 31.38 31.63 31.83 31.88 32.21
37.06 37.22 37.37 37.62 37.55 37.25 37.14 37.40 37.48 37.52 37.33 37.21 37.25 37.31 37.41 37.44 37.60 37.59 37.57 37.40 37.12 36.89 36.89 37.04 36.82 36.73 36.65 36.61 36.24 35.77 35.30 34.82 34.66 34.58 34.56 34.59 34.65 34.66 34.63 34.75 34.36 34.09 33.96 34.27 33.95 33.54 33.28 33.15 32.94 32.72 32.45 32.35 31.91 31.66 31.50 31.30 31.03 30.81 30.43 29.98 29.92 29.80 29.93 30.19 30.34 30.52 30.67 30.49 30.54
37.77 38.00 38.38 38.95 38.76 38.65 38.57 38.50 38.27 38.00 37.77 37.84 38.01 37.92 37.79 37.54 37.44 37.24 37.00 36.86 36.89 36.75 36.75 37.03 36.97 37.00 36.97 36.62 36.06 35.37 34.63 34.10 33.95 33.84 33.85 34.08 34.14 34.09 34.13 34.32 34.26 34.13 34.11 34.26 34.37 34.16 33.76 33.40 32.95 32.74 32.48 32.30 32.02 31.67 31.37 30.94 30.51 30.25 29.95 29.54 29.48 29.50 29.55 29.58 29.41 29.46 29.62 29.49 29.80
38.53 38.87 39.18 39.54 39.53 39.45 39.29 39.06 38.66 38.49 38.51 38.72 38.92 39.01 38.73 37.97 37.51 37.08 36.90 36.80 36.90 36.87 36.76 36.78 36.88 36.93 36.58 35.83 35.21 34.64 34.20 33.76 33.61 33.53 33.36 33.35 33.40 33.40 33.58 33.97 33.98 34.00 33.96 33.98 35.35 36.08 35.93 34.72 34.29 33.48 32.54 32.04 31.40 30.84 30.34 29.44 29.25 29.14 29.11 29.08 29.00 28.92 29.00 28.95 29.03 29.24 29.40 29.58 29.74
39.08 39.38 39.59 39.78 39.76 39.54 39.29 39.04 38.84 38.94 39.07 39.26 39.42 39.36 39.06 38.34 37.62 37.17 36.86 36.83 36.81 36.76 36.75 36.66 36.65 36.32 35.67 34.86 34.19 33.88 33.63 33.46 33.38 33.18 32.87 32.87 32.50 32.33 32.35 32.87 33.04 33.00 33.36 34.55 35.32 35.75 35.92 36.25 35.89 34.22 32.35 31.04 29.87 29.15 28.62 28.15 28.01 27.90 27.82 27.74 27.91 28.05 28.10 28.18 28.32 28.59 28.89 29.37 29.53
38.99 39.13 39.49 39.85 39.80 39.50 39.34 39.22 39.30 39.29 39.34 39.39 39.20 38.98 38.69 38.39 38.02 37.32 36.68 36.37 36.41 36.48 36.57 36.60 36.36 35.69 34.75 33.93 33.33 32.85 32.55 32.58 32.52 32.31 31.99 31.66 31.36 31.10 31.05 31.52 31.66 31.89 32.65 34.53 35.17 35.47 35.64 36.04 36.13 35.22 33.30 30.14 28.46 27.52 27.06 26.86 26.86 26.80 26.89 27.11 27.33 27.35 27.45 27.61 27.75 28.13 28.65 29.45 29.71
38.64 38.79 39.03 39.16 39.03 38.97 38.96 39.09 39.05 38.91 38.85 38.88 38.73 38.54 38.30 38.02 37.34 36.72 36.23 36.09 36.29 36.46 36.41 35.98 35.30 34.65 34.00 33.37 32.66 32.06 31.66 31.46 31.52 31.44 31.24 30.95 30.50 30.21 30.13 30.47 30.04 30.81 32.35 34.57 35.14 35.43 35.57 35.89 35.89 35.64 34.23 30.69 28.20 27.17 26.72 26.27 26.28 26.16 26.32 26.70 26.96 27.01 27.04 27.23 27.97 28.65 29.19 29.85 30.03
37.99 37.84 37.67 37.89 37.95 38.18 38.42 38.40 38.46 38.49 38.56 38.56 38.39 38.03 37.59 37.03 36.59 36.41 36.38 36.51 36.45 36.19 35.75 34.94 34.12 33.67 33.28 32.71 32.23 31.78 31.51 31.29 31.39 31.21 30.78 30.05 29.40 28.92 28.66 28.63 28.44 29.74 31.87 34.50 34.91 35.25 35.40 35.57 35.44 35.34 34.97 34.03 29.50 27.03 26.09 25.82 26.05 26.27 26.59 27.16 27.63 27.88 28.29 29.14 29.54 29.62 29.62 29.33 29.29
36.68 36.48 36.45 36.93 37.25 37.57 37.76 37.74 37.99 38.06 38.06 38.13 37.73 37.21 36.74 36.40 36.28 36.45 36.53 36.48 35.98 35.29 34.50 33.78 33.41 33.06 32.60 32.16 31.93 31.63 31.46 31.40 30.91 30.33 29.43 28.37 27.81 27.54 27.46 27.76 27.65 28.89 31.13 34.02 34.56 34.91 35.19 35.35 35.27 35.01 34.79 34.61 30.66 27.85 26.33 25.97 26.19 26.85 27.53 28.24 28.89 29.30 29.51 29.48 29.37 29.20 29.04 28.75 28.53
36.12 35.89 35.93 36.16 36.37 36.75 37.04 37.24 37.27 37.21 37.25 37.33 36.96 36.59 36.30 36.20 36.09 36.10 36.05 35.71 35.00 34.23 33.64 33.50 33.05 32.47 31.99 31.82 31.75 31.53 31.07 30.48 29.74 29.00 28.03 27.19 26.78 26.80 26.97 27.21 26.94 28.27 30.72 33.54 34.24 34.74 35.01 35.32 35.23 34.96 34.67 34.35 31.15 28.56 26.94 26.54 26.60 27.14 27.90 28.44 29.04 29.25 29.27 29.13 28.90 28.63 28.43 28.19 27.69
35.95 35.51 35.17 34.92 35.17 35.67 36.23 36.44 36.50 36.67 36.76 36.59 36.21 36.15 35.96 35.86 35.53 35.41 35.18 34.61 34.25 33.72 33.36 33.11 32.46 31.86 31.33 31.16 31.00 30.59 29.98 29.21 28.47 27.84 27.19 26.73 26.54 26.54 26.67 26.94 26.56 27.67 29.95 33.26 34.09 34.67 34.96 35.17 35.08 34.73 34.38 33.92 31.60 29.09 27.25 26.72 26.84 27.24 27.67 27.89 28.27 28.45 28.37 28.25 28.28 27.98 27.65 27.54 27.42
35.74 35.03 34.47 33.87 33.76 34.28 34.90 35.70 36.18 36.39 36.29 35.92 35.62 35.42 35.12 34.82 34.46 34.36 34.19 33.92 33.72 33.40 32.92 32.36 31.45 30.85 30.47 30.09 29.66 29.12 28.53 28.01 27.35 26.94 26.61 26.33 26.36 26.39 26.52 26.99 26.91 28.46 30.87 33.40 34.13 34.51 34.74 34.87 34.60 34.36 33.92 33.58 31.43 29.29 27.55 27.28 27.48 27.72 27.85 27.88 27.79 27.70 27.56 27.53 27.69 27.72 27.80 27.99 28.12
35.01 34.67 34.33 34.01 33.89 34.33 35.05 35.74 35.78 35.65 35.45 35.03 34.58 34.17 33.80 33.68 33.55 33.53 33.58 33.38 33.07 32.63 32.06 31.42 30.73 30.13 29.58 29.17 28.66 28.06 27.40 26.94 26.68 26.41 26.15 26.02 25.99 25.97 26.19 26.61 27.00 29.42 32.19 33.53 34.07 34.37 34.41 34.36 34.16 33.95 33.61 33.06 30.98 29.23 27.93 27.52 27.66 27.68 27.71 27.68 27.85 27.96 28.01 28.05 28.16 28.40 28.58 28.79 28.87
35.37 35.39 35.51 35.46 35.60 35.80 35.86 35.68 35.24 34.67 34.13 33.63 33.21 32.94 32.93 33.13 33.33 33.22 32.97 32.44 31.89 31.25 30.68 30.07 29.65 29.08 28.57 28.14 27.89 27.60 27.10 26.43 26.14 25.82 25.60 25.33 25.29 25.40 25.66 25.84 26.34 29.04 32.17 33.64 34.02 34.11 34.02 33.92 33.68 33.56 33.13 31.97 30.11 28.72 27.93 27.73 27.89 27.81 27.75 27.97 27.98 28.09 28.28 28.49 28.79 29.17 29.27 29.28 29.34
36.74 36.57 36.46 36.40 35.73 34.83 34.01 33.36 33.31 32.95 32.62 32.55 32.48 32.62 32.83 33.10 32.94 32.64 32.03 31.17 30.22 29.53 29.02 28.54 28.26 27.97 27.76 27.48 27.21 26.91 26.69 26.28 25.89 25.70 25.39 25.00 24.84 24.79 24.96 25.24 25.43 28.00 31.23 33.13 33.56 33.61 33.59 33.45 33.25 33.10 32.52 31.20 29.45 28.70 28.54 28.73 28.76 28.54 28.49 28.71 28.33 28.31 28.56 28.90 29.31 29.59 29.70 29.85 29.84
36.51 36.64 36.57 35.77 33.98 33.03 32.54 32.57 32.44 32.19 32.06 32.36 32.62 32.71 32.60 32.36 31.79 31.23 30.54 29.58 28.82 28.21 27.71 27.48 27.19 26.97 26.79 26.73 26.45 26.33 26.28 26.19 25.76 25.43 24.96 24.80 24.42 24.36 24.50 24.80 25.11 26.74 29.12 31.82 32.74 33.03 33.10 33.05 32.93 32.68 31.74 30.02 28.88 28.81 29.14 29.39 29.37 29.27 29.08 29.05 28.88 28.81 29.04 29.48 29.69 29.81 29.95 30.10 30.10
35.11 34.92 34.40 33.60 32.76 32.49 32.49 32.66 32.47 32.29 32.29 32.45 32.57 32.41 31.93 31.26 30.39 29.70 28.95 28.18 27.87 27.35 26.89 26.62 26.55 26.28 26.11 26.05 25.88 25.78 25.80 25.68 25.37 25.09 24.76 24.54 24.17 24.10 24.23 24.68 24.98 25.88 27.77 30.88 32.06 32.54 32.69 32.66 32.69 32.39 31.44 29.39 28.72 28.97 29.35 29.45 29.33 29.31 29.31 29.33 29.54 29.52 29.68 29.98 30.20 30.42 30.40 30.33 30.71
33.17 32.85 32.81 32.82 32.76 32.77 32.77 32.71 32.52 32.41 32.29 32.13 31.74 31.31 30.56 29.72 29.07 28.77 28.33 27.43 27.24 26.81 26.38 26.01 25.90 25.74 25.57 25.50 25.35 25.33 25.43 25.35 25.23 25.00 24.71 24.29 24.32 24.88 25.17 24.69 24.67 25.42 27.16 30.24 31.53 32.12 32.21 32.30 32.33 32.20 31.62 29.92 29.42 29.47 29.61 29.48 29.31 29.40 29.49 29.65 29.85 30.00 30.09 30.49 30.88 31.06 31.11 30.95 32.20
33.43 33.58 33.59 33.51 33.29 33.02 32.84 32.39 32.15 31.88 31.64 31.36 30.84 30.06 29.12 28.36 27.92 28.22 28.27 26.94 26.72 26.29 25.95 25.64 25.39 25.44 25.50 25.40 25.16 24.98 24.91 24.96 25.01 24.86 24.51 24.02 24.57 26.44 27.23 24.50 24.00 24.66 26.38 29.23 30.95 31.68 31.91 31.95 32.03 32.10 31.74 30.27 30.03 29.92 29.98 29.80 29.71 29.59 29.72 30.08 30.13 30.41 30.66 31.08 31.41 31.58 31.69 31.60 32.58
33.94 33.84 33.72 33.51 33.25 32.88 32.48 32.03 31.45 31.19 30.95 30.72 29.87 28.93 28.11 27.40 27.27 27.43 27.22 26.34 26.18 25.89 25.66 25.38 25.18 25.17 25.24 25.31 25.15 24.79 24.49 24.48 24.66 24.52 24.08 23.50 24.05 25.88 26.54 23.82 23.53 23.96 25.25 27.76 30.07 31.14 31.63 31.78 31.87 32.03 31.81 30.62 30.37 30.41 30.47 30.49 30.24 30.05 30.10 30.44 30.59 30.68 30.68 30.82 30.92 30.87 30.74 30.59 30.52
MSLP
1012.61 1012.57 1012.53 1012.53 1012.57 1012.61 1012.69 1012.69 1012.85 1012.97 1013.05 1013.21 1013.41 1013.65 1013.85 1014.09 1014.41 1014.65 1014.81 1014.97 1015.25 1015.45 1015.65 1015.93 1016.09 1016.33 1016.53 1016.61 1016.69 1016.81 1016.97 1017.17 1017.37 1017.65 1017.85 1018.05 1018.25 1018.45 1018.61 1018.77 1018.89 1018.97 1019.05 1019.09 1019.09 1019.09 1019.09 1019.09 1019.09 1019.01 1018.97 1018.97 1018.97 1018.97 1018.93 1018.85 1018.85 1018.81 1018.81 1018.69 1018.61 1018.53 1018.41 1018.37 1018.25 1018.17 1018.09 1017.97 1017.93
1012.49 1012.37 1012.33 1012.37 1012.37 1012.45 1012.53 1012.69 1012.89 1012.97 1013.01 1013.17 1013.37 1013.61 1013.81 1014.05 1014.37 1014.69 1014.85 1015.05 1015.25 1015.45 1015.65 1015.93 1016.13 1016.37 1016.53 1016.65 1016.81 1016.97 1017.09 1017.25 1017.49 1017.65 1017.89 1018.09 1018.33 1018.53 1018.69 1018.81 1018.85 1018.93 1018.97 1018.97 1018.97 1018.97 1018.97 1018.93 1018.93 1018.93 1018.89 1018.85 1018.89 1018.85 1018.81 1018.69 1018.69 1018.69 1018.69 1018.57 1018.49 1018.37 1018.25 1018.21 1018.09 1018.01 1017.97 1017.85 1017.77
1012.37 1012.25 1012.25 1012.33 1012.37 1012.49 1012.65 1012.77 1012.89 1012.97 1013.09 1013.21 1013.49 1013.73 1013.93 1014.17 1014.45 1014.73 1014.97 1015.17 1015.33 1015.53 1015.77 1015.97 1016.21 1016.37 1016.53 1016.73 1016.85 1016.97 1017.13 1017.33 1017.53 1017.77 1017.97 1018.21 1018.41 1018.57 1018.69 1018.81 1018.81 1018.81 1018.81 1018.81 1018.81 1018.81 1018.81 1018.77 1018.77 1018.77 1018.77 1018.73 1018.77 1018.77 1018.69 1018.61 1018.57 1018.57 1018.53 1018.41 1018.33 1018.25 1018.13 1018.09 1017.97 1017.85 1017.81 1017.73 1017.65
1012.33 1012.25 1012.25 1012.25 1012.33 1012.37 1012.53 1012.77 1012.89 1013.01 1013.13 1013.33 1013.65 1013.89 1014.09 1014.33 1014.61 1014.81 1015.09 1015.25 1015.49 1015.69 1015.89 1016.09 1016.29 1016.41 1016.57 1016.81 1016.93 1017.09 1017.25 1017.45 1017.65 1017.89 1018.09 1018.29 1018.49 1018.57 1018.65 1018.69 1018.69 1018.69 1018.65 1018.65 1018.69 1018.65 1018.61 1018.61 1018.61 1018.61 1018.61 1018.61 1018.65 1018.61 1018.53 1018.45 1018.41 1018.37 1018.33 1018.21 1018.13 1018.09 1018.01 1017.93 1017.81 1017.77 1017.69 1017.61 1017.53
1012.37 1012.29 1012.25 1012.25 1012.25 1012.25 1012.37 1012.65 1012.93 1013.09 1013.25 1013.41 1013.77 1014.05 1014.29 1014.53 1014.73 1014.97 1015.21 1015.41 1015.65 1015.81 1015.97 1016.13 1016.29 1016.49 1016.65 1016.81 1016.97 1017.17 1017.37 1017.57 1017.81 1018.01 1018.25 1018.41 1018.53 1018.53 1018.53 1018.49 1018.53 1018.49 1018.49 1018.53 1018.53 1018.49 1018.45 1018.45 1018.45 1018.45 1018.45 1018.45 1018.45 1018.37 1018.33 1018.29 1018.25 1018.21 1018.13 1018.05 1017.97 1017.93 1017.85 1017.81 1017.69 1017.61 1017.53 1017.53 1017.41
1012.45 1012.37 1012.37 1012.37 1012.45 1012.49 1012.53 1012.73 1012.97 1013.21 1013.37 1013.61 1013.93 1014.21 1014.45 1014.69 1014.85 1015.09 1015.33 1015.57 1015.77 1015.93 1016.05 1016.21 1016.33 1016.53 1016.77 1016.97 1017.13 1017.37 1017.57 1017.77 1017.97 1018.17 1018.33 1018.49 1018.49 1018.41 1018.37 1018.37 1018.37 1018.37 1018.37 1018.37 1018.33 1018.29 1018.29 1018.29 1018.29 1018.29 1018.29 1018.29 1018.25 1018.21 1018.13 1018.09 1018.09 1018.05 1017.97 1017.93 1017.81 1017.77 1017.69 1017.65 1017.57 1017.49 1017.41 1017.37 1017.29
1012.49 1012.53 1012.53 1012.49 1012.53 1012.69 1012.81 1012.93 1013.13 1013.37 1013.57 1013.81 1014.09 1014.37 1014.61 1014.81 1014.97 1015.21 1015.41 1015.61 1015.77 1015.93 1016.05 1016.25 1016.41 1016.69 1016.89 1017.13 1017.37 1017.53 1017.77 1017.97 1018.17 1018.33 1018.37 1018.37 1018.33 1018.25 1018.21 1018.17 1018.13 1018.17 1018.17 1018.13 1018.09 1018.09 1018.09 1018.09 1018.13 1018.13 1018.09 1018.09 1018.05 1017.97 1017.93 1017.93 1017.93 1017.89 1017.85 1017.77 1017.65 1017.57 1017.53 1017.49 1017.37 1017.33 1017.29 1017.25 1017.25
1012.53 1012.61 1012.69 1012.65 1012.69 1012.81 1012.97 1013.09 1013.25 1013.49 1013.77 1014.01 1014.25 1014.53 1014.69 1014.85 1015.09 1015.25 1015.45 1015.65 1015.81 1015.97 1016.13 1016.33 1016.61 1016.85 1017.09 1017.37 1017.57 1017.81 1017.97 1018.13 1018.25 1018.33 1018.33 1018.25 1018.13 1018.09 1018.01 1017.97 1017.97 1017.97 1017.97 1017.97 1017.93 1017.93 1017.93 1017.93 1017.97 1017.97 1017.93 1017.89 1017.85 1017.81 1017.73 1017.73 1017.69 1017.69 1017.69 1017.61 1017.49 1017.41 1017.37 1017.29 1017.25 1017.21 1017.17 1017.13 1017.09
1012.73 1012.81 1012.81 1012.89 1012.97 1013.09 1013.17 1013.29 1013.45 1013.65 1013.93 1014.17 1014.41 1014.61 1014.81 1014.97 1015.13 1015.33 1015.53 1015.77 1015.93 1016.05 1016.25 1016.49 1016.77 1017.05 1017.29 1017.53 1017.73 1017.93 1018.09 1018.17 1018.21 1018.17 1018.09 1018.01 1017.93 1017.89 1017.81 1017.81 1017.81 1017.77 1017.73 1017.73 1017.73 1017.73 1017.73 1017.77 1017.73 1017.73 1017.73 1017.69 1017.65 1017.65 1017.61 1017.57 1017.57 1017.57 1017.53 1017.45 1017.37 1017.29 1017.21 1017.17 1017.13 1017.09 1017.09 1017.01 1016.97
1013.01 1013.05 1013.09 1013.13 1013.25 1013.37 1013.49 1013.57 1013.73 1013.89 1014.13 1014.37 1014.61 1014.81 1014.97 1015.13 1015.29 1015.45 1015.65 1015.85 1016.05 1016.21 1016.37 1016.65 1016.89 1017.17 1017.41 1017.65 1017.81 1017.97 1018.05 1018.09 1018.05 1017.97 1017.81 1017.73 1017.65 1017.65 1017.61 1017.57 1017.57 1017.57 1017.57 1017.53 1017.57 1017.61 1017.65 1017.65 1017.65 1017.61 1017.57 1017.57 1017.53 1017.53 1017.49 1017.45 1017.45 1017.45 1017.37 1017.29 1017.25 1017.17 1017.09 1017.05 1017.01 1016.97 1016.93 1016.89 1016.85
1013.25 1013.37 1013.37 1013.41 1013.53 1013.65 1013.81 1013.93 1014.05 1014.25 1014.41 1014.61 1014.81 1014.97 1015.13 1015.29 1015.45 1015.61 1015.77 1015.93 1016.13 1016.33 1016.53 1016.69 1016.97 1017.21 1017.41 1017.57 1017.73 1017.81 1017.85 1017.81 1017.73 1017.65 1017.53 1017.49 1017.45 1017.41 1017.41 1017.41 1017.45 1017.45 1017.45 1017.45 1017.45 1017.49 1017.53 1017.53 1017.53 1017.53 1017.45 1017.37 1017.37 1017.37 1017.33 1017.33 1017.29 1017.29 1017.21 1017.09 1017.09 1017.05 1016.97 1016.93 1016.85 1016.81 1016.81 1016.73 1016.69
1013.53 1013.61 1013.69 1013.77 1013.85 1013.97 1014.09 1014.25 1014.37 1014.53 1014.69 1014.85 1015.05 1015.17 1015.29 1015.41 1015.57 1015.65 1015.81 1015.97 1016.17 1016.37 1016.53 1016.69 1016.97 1017.17 1017.37 1017.49 1017.61 1017.65 1017.61 1017.53 1017.45 1017.37 1017.33 1017.29 1017.29 1017.29 1017.29 1017.33 1017.29 1017.29 1017.29 1017.29 1017.29 1017.33 1017.33 1017.33 1017.33 1017.33 1017.29 1017.25 1017.25 1017.21 1017.17 1017.13 1017.13 1017.09 1017.01 1016.93 1016.89 1016.85 1016.81 1016.73 1016.69 1016.65 1016.61 1016.53 1016.53
1013.69 1013.81 1013.97 1014.01 1014.09 1014.17 1014.29 1014.49 1014.65 1014.77 1014.89 1015.05 1015.17 1015.29 1015.41 1015.53 1015.57 1015.65 1015.81 1015.97 1016.17 1016.37 1016.53 1016.69 1016.85 1017.09 1017.25 1017.33 1017.41 1017.37 1017.33 1017.25 1017.21 1017.17 1017.17 1017.13 1017.13 1017.13 1017.17 1017.17 1017.13 1017.13 1017.13 1017.13 1017.13 1017.13 1017.13 1017.13 1017.13 1017.13 1017.13 1017.09 1017.05 1017.01 1016.97 1016.97 1016.97 1016.93 1016.81 1016.81 1016.73 1016.69 1016.65 1016.57 1016.53 1016.45 1016.41 1016.41 1016.37
1013.85 1013.97 1014.09 1014.17 1014.25 1014.37 1014.49 1014.65 1014.81 1014.89 1015.01 1015.13 1015.25 1015.37 1015.41 1015.49 1015.57 1015.65 1015.81 1015.97 1016.17 1016.29 1016.45 1016.57 1016.77 1016.97 1017.09 1017.17 1017.17 1017.13 1017.09 1017.05 1017.05 1017.01 1017.01 1016.97 1016.97 1017.01 1017.01 1016.97 1016.97 1016.97 1016.97 1016.97 1016.97 1016.97 1016.97 1017.01 1017.01 1017.01 1016.97 1016.97 1016.89 1016.81 1016.81 1016.81 1016.77 1016.73 1016.69 1016.69 1016.61 1016.53 1016.49 1016.41 1016.37 1016.33 1016.29 1016.25 1016.25
1013.97 1014.09 1014.17 1014.25 1014.37 1014.49 1014.65 1014.73 1014.85 1014.97 1015.09 1015.17 1015.25 1015.33 1015.37 1015.49 1015.61 1015.69 1015.81 1015.97 1016.13 1016.25 1016.41 1016.61 1016.77 1016.85 1016.93 1016.97 1016.93 1016.89 1016.89 1016.89 1016.89 1016.89 1016.89 1016.89 1016.89 1016.89 1016.89 1016.85 1016.81 1016.81 1016.81 1016.81 1016.81 1016.81 1016.81 1016.81 1016.81 1016.81 1016.81 1016.73 1016.69 1016.65 1016.57 1016.57 1016.57 1016.53 1016.53 1016.45 1016.41 1016.37 1016.33 1016.25 1016.21 1016.17 1016.17 1016.13 1016.09
1014.09 1014.17 1014.25 1014.37 1014.49 1014.61 1014.73 1014.81 1014.89 1015.01 1015.13 1015.25 1015.29 1015.33 1015.37 1015.53 1015.65 1015.77 1015.85 1016.01 1016.13 1016.29 1016.45 1016.61 1016.73 1016.77 1016.77 1016.77 1016.77 1016.77 1016.77 1016.77 1016.77 1016.81 1016.81 1016.77 1016.77 1016.73 1016.69 1016.73 1016.69 1016.69 1016.69 1016.69 1016.69 1016.69 1016.65 1016.65 1016.65 1016.61 1016.57 1016.53 1016.49 1016.45 1016.41 1016.37 1016.37 1016.33 1016.29 1016.25 1016.25 1016.17 1016.09 1016.05 1016.05 1016.01 1015.97 1015.97 1015.93
1014.21 1014.29 1014.37 1014.45 1014.61 1014.69 1014.81 1014.93 1014.97 1015.09 1015.17 1015.25 1015.33 1015.37 1015.45 1015.57 1015.65 1015.77 1015.89 1016.01 1016.17 1016.33 1016.49 1016.57 1016.65 1016.65 1016.65 1016.65 1016.65 1016.65 1016.65 1016.65 1016.65 1016.65 1016.65 1016.61 1016.57 1016.57 1016.57 1016.53 1016.53 1016.53 1016.53 1016.53 1016.53 1016.53 1016.49 1016.45 1016.41 1016.37 1016.37 1016.37 1016.33 1016.29 1016.25 1016.21 1016.21 1016.17 1016.09 1016.09 1016.01 1015.97 1015.93 1015.89 1015.85 1015.81 1015.77 1015.73 1015.69
1014.29 1014.41 1014.53 1014.57 1014.69 1014.81 1014.89 1014.97 1015.01 1015.09 1015.17 1015.25 1015.29 1015.37 1015.49 1015.57 1015.65 1015.73 1015.85 1016.01 1016.21 1016.33 1016.41 1016.49 1016.53 1016.53 1016.53 1016.53 1016.49 1016.49 1016.49 1016.45 1016.49 1016.49 1016.49 1016.45 1016.41 1016.41 1016.37 1016.37 1016.37 1016.37 1016.37 1016.37 1016.37 1016.37 1016.33 1016.25 1016.21 1016.17 1016.17 1016.17 1016.09 1016.09 1016.05 1016.01 1015.97 1015.97 1015.93 1015.85 1015.81 1015.73 1015.69 1015.65 1015.61 1015.61 1015.57 1015.53 1015.49
1014.37 1014.53 1014.61 1014.69 1014.77 1014.81 1014.89 1014.97 1014.97 1015.09 1015.13 1015.21 1015.25 1015.37 1015.49 1015.53 1015.65 1015.73 1015.85 1015.97 1016.09 1016.21 1016.25 1016.33 1016.37 1016.37 1016.37 1016.37 1016.37 1016.37 1016.37 1016.33 1016.33 1016.33 1016.29 1016.29 1016.25 1016.25 1016.25 1016.25 1016.25 1016.25 1016.25 1016.25 1016.21 1016.17 1016.09 1016.09 1016.01 1015.97 1015.97 1015.97 1015.93 1015.85 1015.81 1015.81 1015.77 1015.69 1015.65 1015.61 1015.53 1015.53 1015.45 1015.41 1015.37 1015.33 1015.29 1015.25 1015.25
1014.45 1014.53 1014.65 1014.69 1014.73 1014.81 1014.89 1014.97 1014.97 1015.05 1015.09 1015.21 1015.29 1015.37 1015.45 1015.53 1015.65 1015.73 1015.81 1015.93 1016.01 1016.09 1016.13 1016.21 1016.21 1016.25 1016.25 1016.25 1016.25 1016.25 1016.21 1016.21 1016.21 1016.21 1016.17 1016.13 1016.13 1016.09 1016.09 1016.09 1016.09 1016.09 1016.05 1016.01 1015.97 1015.97 1015.89 1015.85 1015.81 1015.81 1015.81 1015.73 1015.69 1015.65 1015.61 1015.53 1015.53 1015.45 1015.37 1015.37 1015.29 1015.25 1015.21 1015.17 1015.09 1015.09 1015.01 1014.97 1014.97
1014.41 1014.53 1014.65 1014.69 1014.77 1014.85 1014.93 1014.97 1015.05 1015.09 1015.21 1015.29 1015.37 1015.45 1015.49 1015.53 1015.61 1015.69 1015.81 1015.89 1015.97 1016.01 1016.09 1016.09 1016.13 1016.13 1016.13 1016.13 1016.13 1016.09 1016.09 1016.05 1016.09 1016.09 1016.09 1016.01 1016.01 1015.97 1015.97 1015.97 1015.93 1015.89 1015.85 1015.81 1015.81 1015.81 1015.73 1015.65 1015.65 1015.61 1015.57 1015.53 1015.53 1015.45 1015.37 1015.33 1015.29 1015.25 1015.17 1015.09 1015.05 1014.97 1014.97 1014.89 1014.85 1014.81 1014.77 1014.69 1014.65
1014.45 1014.53 1014.65 1014.73 1014.81 1014.85 1014.93 1014.97 1015.09 1015.17 1015.25 1015.33 1015.37 1015.41 1015.49 1015.53 1015.65 1015.77 1015.81 1015.89 1015.97 1015.97 1015.97 1015.97 1015.97 1015.97 1016.01 1016.05 1016.05 1016.05 1016.05 1016.05 1016.01 1015.97 1015.97 1015.93 1015.89 1015.81 1015.81 1015.77 1015.77 1015.77 1015.69 1015.65 1015.65 1015.61 1015.53 1015.49 1015.41 1015.37 1015.37 1015.33 1015.25 1015.25 1015.17 1015.09 1015.05 1014.97 1014.93 1014.85 1014.81 1014.73 1014.69 1014.61 1014.57 1014.53 1014.49 1014.41 1014.37
1014.53 1014.61 1014.69 1014.77 1014.81 1014.89 1014.97 1015.05 1015.17 1015.25 1015.37 1015.37 1015.45 1015.53 1015.65 1015.77 1015.85 1015.93 1015.93 1015.93 1015.89 1015.89 1015.89 1015.89 1015.89 1015.89 1015.89 1015.93 1015.97 1016.01 1016.01 1015.97 1015.89 1015.85 1015.81 1015.81 1015.73 1015.65 1015.61 1015.57 1015.61 1015.61 1015.57 1015.53 1015.45 1015.41 1015.37 1015.29 1015.25 1015.17 1015.13 1015.09 1015.01 1014.97 1014.89 1014.85 1014.81 1014.77 1014.69 1014.65 1014.57 1014.53 1014.45 1014.37 1014.33 1014.29 1014.25 1014.21 1014.17
1014.57 1014.65 1014.69 1014.81 1014.89 1015.01 1015.13 1015.25 1015.37 1015.49 1015.53 1015.61 1015.65 1015.77 1015.89 1016.01 1016.05 1015.97 1015.93 1015.85 1015.81 1015.81 1015.81 1015.81 1015.81 1015.81 1015.81 1015.85 1015.93 1015.97 1015.89 1015.85 1015.81 1015.73 1015.65 1015.65 1015.57 1015.53 1015.53 1015.49 1015.45 1015.41 1015.37 1015.33 1015.25 1015.25 1015.17 1015.09 1015.05 1014.97 1014.93 1014.85 1014.81 1014.73 1014.69 1014.65 1014.65 1014.61 1014.53 1014.49 1014.41 1014.33 1014.25 1014.21 1014.13 1014.09 1014.05 1014.01 1013.97
1014.57 1014.69 1014.81 1014.97 1015.17 1015.37 1015.53 1015.57 1015.65 1015.73 1015.81 1015.89 1015.97 1016.09 1016.13 1016.13 1016.05 1015.97 1015.89 1015.81 1015.81 1015.77 1015.77 1015.73 1015.73 1015.73 1015.77 1015.81 1015.81 1015.81 1015.73 1015.69 1015.69 1015.65 1015.57 1015.53 1015.49 1015.45 1015.41 1015.37 1015.29 1015.25 1015.21 1015.13 1015.05 1014.97 1014.93 1014.89 1014.81 1014.77 1014.69 1014.69 1014.61 1014.57 1014.53 1014.53 1014.53 1014.45 1014.41 1014.37 1014.33 1014.25 1014.13 1014.09 1014.01 1013.97 1013.93 1013.85 1013.81
1014.69 1014.85 1015.09 1015.33 1015.49 1015.61 1015.73 1015.81 1015.85 1015.93 1015.97 1016.05 1016.09 1016.09 1016.09 1016.01 1015.93 1015.85 1015.81 1015.77 1015.69 1015.65 1015.65 1015.65 1015.69 1015.77 1015.81 1015.73 1015.69 1015.65 1015.61 1015.57 1015.53 1015.53 1015.49 1015.45 1015.37 1015.33 1015.29 1015.25 1015.17 1015.09 1015.05 1014.97 1014.85 1014.81 1014.73 1014.69 1014.65 1014.61 1014.57 1014.53 1014.53 1014.49 1014.49 1014.45 1014.37 1014.37 1014.33 1014.29 1014.25 1014.17 1014.09 1014.05 1013.93 1013.85 1013.81 1013.81 1013.77
1014.81 1014.97 1015.17 1015.33 1015.45 1015.53 1015.61 1015.65 1015.77 1015.81 1015.85 1015.89 1015.89 1015.89 1015.85 1015.77 1015.73 1015.65 1015.65 1015.65 1015.61 1015.61 1015.61 1015.65 1015.73 1015.77 1015.69 1015.65 1015.57 1015.53 1015.53 1015.45 1015.37 1015.37 1015.37 1015.33 1015.29 1015.25 1015.21 1015.09 1015.05 1014.97 1014.93 1014.81 1014.73 1014.69 1014.61 1014.53 1014.49 1014.41 1014.41 1014.45 1014.41 1014.37 1014.37 1014.37 1014.29 1014.25 1014.25 1014.25 1014.17 1014.09 1014.05 1013.97 1013.85 1013.77 1013.69 1013.65 1013.57
1014.85 1014.97 1015.09 1015.21 1015.25 1015.29 1015.37 1015.41 1015.53 1015.57 1015.61 1015.65 1015.65 1015.65 1015.61 1015.53 1015.49 1015.49 1015.49 1015.49 1015.49 1015.53 1015.57 1015.65 1015.65 1015.61 1015.53 1015.53 1015.49 1015.45 1015.41 1015.37 1015.33 1015.25 1015.21 1015.21 1015.17 1015.13 1015.05 1014.97 1014.93 1014.81 1014.73 1014.69 1014.61 1014.53 1014.49 1014.37 1014.33 1014.25 1014.25 1014.25 1014.25 1014.25 1014.25 1014.25 1014.25 1014.21 1014.17 1014.13 1014.09 1013.97 1013.93 1013.81 1013.69 1013.61 1013.53 1013.45 1013.37
1014.93 1014.97 1015.09 1015.17 1015.21 1015.25 1015.25 1015.37 1015.37 1015.41 1015.45 1015.45 1015.45 1015.41 1015.37 1015.37 1015.33 1015.33 1015.37 1015.37 1015.41 1015.53 1015.57 1015.61 1015.53 1015.41 1015.41 1015.41 1015.37 1015.37 1015.29 1015.25 1015.21 1015.17 1015.09 1015.09 1015.05 1014.97 1014.93 1014.85 1014.77 1014.69 1014.61 1014.53 1014.45 1014.37 1014.29 1014.25 1014.13 1014.09 1014.01 1014.01 1014.09 1014.17 1014.17 1014.17 1014.13 1014.09 1014.05 1013.97 1013.89 1013.81 1013.77 1013.65 1013.53 1013.45 1013.37 1013.37 1013.25
1014.97 1015.01 1015.05 1015.09 1015.09 1015.13 1015.21 1015.25 1015.25 1015.25 1015.25 1015.25 1015.25 1015.25 1015.25 1015.21 1015.25 1015.25 1015.25 1015.37 1015.41 1015.45 1015.45 1015.37 1015.37 1015.33 1015.33 1015.29 1015.25 1015.25 1015.21 1015.13 1015.05 1015.01 1015.05 1015.05 1014.97 1014.93 1014.81 1014.69 1014.65 1014.57 1014.45 1014.37 1014.29 1014.21 1014.13 1014.05 1013.97 1013.93 1013.85 1013.89 1013.97 1014.01 1014.01 1013.97 1013.97 1013.97 1013.89 1013.77 1013.65 1013.61 1013.53 1013.41 1013.37 1013.29 1013.25 1013.21 1013.13
1014.93 1014.97 1014.97 1015.05 1015.05 1015.09 1015.09 1015.09 1015.05 1015.05 1015.05 1015.01 1015.01 1015.05 1015.09 1015.09 1015.13 1015.21 1015.25 1015.29 1015.37 1015.33 1015.25 1015.21 1015.21 1015.21 1015.21 1015.13 1015.13 1015.13 1015.09 1015.01 1014.97 1014.97 1014.93 1014.93 1014.85 1014.77 1014.69 1014.57 1014.53 1014.41 1014.33 1014.25 1014.13 1014.09 1013.97 1013.89 1013.81 1013.81 1013.77 1013.77 1013.81 1013.85 1013.85 1013.81 1013.81 1013.77 1013.69 1013.57 1013.49 1013.41 1013.37 1013.25 1013.21 1013.13 1013.09 1013.01 1012.97
1014.89 1014.93 1014.97 1014.97 1015.01 1014.97 1014.97 1014.93 1014.93 1014.93 1014.89 1014.89 1014.93 1014.97 1014.97 1015.05 1015.09 1015.13 1015.13 1015.13 1015.21 1015.17 1015.13 1015.09 1015.09 1015.09 1015.09 1015.09 1015.09 1015.05 1015.01 1014.97 1014.93 1014.85 1014.81 1014.81 1014.73 1014.65 1014.53 1014.49 1014.41 1014.33 1014.25 1014.09 1013.97 1013.89 1013.81 1013.77 1013.73 1013.69 1013.69 1013.65 1013.69 1013.73 1013.73 1013.69 1013.65 1013.61 1013.53 1013.37 1013.29 1013.25 1013.17 1013.09 1013.01 1012.93 1012.81 1012.77 1012.69
1014.81 1014.85 1014.93 1014.93 1014.97 1014.97 1014.89 1014.85 1014.85 1014.89 1014.93 1014.93 1014.93 1014.97 1014.97 1015.05 1015.09 1015.09 1015.09 1015.05 1015.09 1015.09 1015.05 1015.05 1015.05 1015.09 1015.09 1015.05 1015.01 1014.97 1014.93 1014.89 1014.81 1014.73 1014.69 1014.65 1014.57 1014.53 1014.45 1014.37 1014.25 1014.17 1014.05 1013.97 1013.85 1013.81 1013.73 1013.65 1013.65 1013.65 1013.57 1013.53 1013.57 1013.57 1013.53 1013.53 1013.45 1013.37 1013.25 1013.17 1013.05 1012.97 1012.93 1012.81 1012.73 1012.65 1012.53 1012.41 1012.37
1014.77 1014.81 1014.81 1014.85 1014.89 1014.89 1014.85 1014.81 1014.85 1014.89 1014.93 1014.97 1014.97 1015.01 1015.05 1015.09 1015.05 1015.05 1015.05 1014.97 1014.97 1014.97 1014.97 1014.97 1014.97 1014.97 1014.97 1014.97 1014.93 1014.89 1014.81 1014.77 1014.69 1014.61 1014.53 1014.53 1014.49 1014.41 1014.33 1014.25 1014.09 1013.97 1013.89 1013.81 1013.77 1013.69 1013.65 1013.61 1013.57 1013.53 1013.45 1013.41 1013.41 1013.41 1013.37 1013.29 1013.25 1013.13 1013.05 1012.97 1012.81 1012.69 1012.61 1012.53 1012.41 1012.29 1012.17 1012.09 1012.01
1014.65 1014.69 1014.73 1014.73 1014.73 1014.77 1014.81 1014.81 1014.85 1014.97 1015.01 1015.09 1015.09 1015.09 1015.05 1015.01 1014.97 1014.97 1014.93 1014.89 1014.89 1014.93 1014.93 1014.93 1014.93 1014.93 1014.85 1014.81 1014.81 1014.81 1014.73 1014.69 1014.61 1014.53 1014.45 1014.41 1014.37 1014.37 1014.25 1014.09 1013.97 1013.81 1013.77 1013.69 1013.65 1013.61 1013.57 1013.53 1013.45 1013.37 1013.33 1013.29 1013.29 1013.25 1013.17 1013.09 1013.01 1012.89 1012.77 1012.65 1012.53 1012.37 1012.25 1012.17 1012.09 1011.97 1011.85 1011.73 1011.65
1014.37 1014.49 1014.61 1014.69 1014.69 1014.73 1014.81 1014.81 1014.89 1014.97 1015.01 1015.05 1015.09 1015.09 1015.01 1014.97 1014.93 1014.93 1014.85 1014.85 1014.89 1014.93 1014.93 1014.93 1014.89 1014.85 1014.81 1014.81 1014.73 1014.69 1014.65 1014.61 1014.53 1014.45 1014.37 1014.33 1014.29 1014.25 1014.13 1014.01 1013.89 1013.77 1013.69 1013.65 1013.57 1013.53 1013.49 1013.37 1013.33 1013.25 1013.21 1013.13 1013.13 1013.09 1012.97 1012.85 1012.77 1012.65 1012.53 1012.37 1012.25 1012.09 1011.93 1011.81 1011.65 1011.57 1011.49 1011.37 1011.29
1014.21 1014.37 1014.53 1014.69 1014.77 1014.81 1014.89 1014.89 1014.97 1014.97 1015.01 1015.01 1015.05 1015.01 1014.97 1014.97 1014.93 1014.85 1014.85 1014.89 1014.93 1014.97 1014.97 1014.93 1014.89 1014.85 1014.81 1014.77 1014.69 1014.61 1014.53 1014.49 1014.41 1014.37 1014.29 1014.25 1014.17 1014.09 1014.05 1013.93 1013.81 1013.77 1013.65 1013.57 1013.49 1013.41 1013.33 1013.25 1013.21 1013.09 1013.01 1012.97 1012.89 1012.81 1012.73 1012.61 1012.49 1012.37 1012.21 1012.09 1011.93 1011.73 1011.57 1011.45 1011.29 1011.17 1011.09 1010.97 1010.89
1014.37 1014.45 1014.57 1014.69 1014.81 1014.89 1014.93 1014.97 1015.01 1015.01 1015.01 1014.97 1014.97 1014.93 1014.89 1014.93 1014.89 1014.85 1014.85 1014.85 1014.89 1014.97 1014.97 1014.89 1014.85 1014.81 1014.73 1014.65 1014.61 1014.53 1014.41 1014.37 1014.33 1014.29 1014.25 1014.13 1014.05 1014.01 1013.97 1013.85 1013.77 1013.69 1013.61 1013.53 1013.41 1013.29 1013.21 1013.09 1013.05 1012.93 1012.85 1012.81 1012.73 1012.61 1012.49 1012.37 1012.25 1012.09 1011.89 1011.73 1011.53 1011.33 1011.17 1011.05 1010.93 1010.81 1010.69 1010.61 1010.53
1014.41 1014.49 1014.57 1014.73 1014.81 1014.93 1014.97 1014.97 1014.97 1014.97 1014.97 1014.93 1014.93 1014.89 1014.89 1014.89 1014.85 1014.81 1014.81 1014.81 1014.81 1014.89 1014.93 1014.85 1014.81 1014.69 1014.61 1014.53 1014.53 1014.41 1014.33 1014.25 1014.17 1014.13 1014.09 1014.01 1013.97 1013.89 1013.85 1013.81 1013.69 1013.61 1013.53 1013.37 1013.29 1013.17 1013.09 1012.97 1012.89 1012.77 1012.69 1012.61 1012.53 1012.37 1012.25 1012.09 1011.97 1011.77 1011.61 1011.37 1011.21 1010.97 1010.77 1010.65 1010.57 1010.53 1010.41 1010.37 1010.33
1014.45 1014.53 1014.61 1014.73 1014.81 1014.85 1014.89 1014.89 1014.89 1014.85 1014.85 1014.89 1014.89 1014.89 1014.89 1014.85 1014.81 1014.77 1014.77 1014.77 1014.77 1014.81 1014.81 1014.81 1014.73 1014.61 1014.49 1014.45 1014.41 1014.37 1014.25 1014.13 1014.05 1013.97 1013.97 1013.89 1013.81 1013.77 1013.73 1013.73 1013.65 1013.53 1013.41 1013.29 1013.17 1013.09 1012.97 1012.85 1012.73 1012.61 1012.49 1012.41 1012.29 1012.17 1012.01 1011.85 1011.65 1011.53 1011.33 1011.09 1010.89 1010.69 1010.53 1010.41 1010.41 1010.37 1010.37 1010.33 1010.25
1014.53 1014.61 1014.69 1014.73 1014.77 1014.77 1014.81 1014.81 1014.81 1014.81 1014.81 1014.81 1014.85 1014.85 1014.81 1014.81 1014.77 1014.73 1014.73 1014.77 1014.77 1014.73 1014.69 1014.69 1014.61 1014.53 1014.41 1014.37 1014.33 1014.25 1014.21 1014.09 1013.97 1013.89 1013.85 1013.81 1013.81 1013.69 1013.65 1013.65 1013.57 1013.49 1013.33 1013.21 1013.09 1012.97 1012.85 1012.73 1012.61 1012.49 1012.37 1012.25 1012.13 1011.97 1011.81 1011.65 1011.49 1011.25 1011.09 1010.89 1010.73 1010.65 1010.53 1010.45 1010.41 1010.37 1010.29 1010.25 1010.17
Wind_Speed
7 7 7 6 6 6 6 5 4 4 4 4 5 5 5 5 5 4 4 4 4 4 4 4 4 3 3 4 5 6 7 7 6 6 5 4 3 3 4 4 5 5 6 7 7 7 6 6 5 4 3 3 3 3 3 3 4 4 4 5 5 5 5 6 6 6 7 7 6
8 8 7 6 6 5 4 4 3 3 4 4 4 4 4 5 5 4 4 4 4 4 4 4 4 4 4 5 6 6 6 6 6 5 4 4 3 4 4 5 6 6 7 8 7 7 6 5 4 4 3 3 3 3 4 4 4 4 5 6 5 4 4 5 6 6 6 6 6
7 6 5 4 5 5 4 4 4 4 4 4 4 4 4 4 5 5 5 5 5 5 4 4 4 4 4 5 5 6 6 6 5 5 4 3 3 4 5 6 6 7 8 8 7 6 6 5 4 4 3 3 4 4 4 4 4 4 5 6 5 4 4 5 5 5 5 5 5
4 3 3 4 6 7 6 5 5 5 5 5 5 5 5 4 5 5 5 5 5 5 4 4 4 4 4 5 6 6 6 6 5 4 3 3 4 5 6 7 7 7 8 7 7 7 6 5 4 4 4 4 4 5 5 4 4 4 4 5 5 5 5 5 5 5 5 5 5
2 1 0 2 4 5 5 6 6 5 5 5 5 5 5 5 5 5 5 5 4 4 4 4 4 4 5 6 7 6 6 5 4 3 2 4 5 6 7 7 7 7 7 7 7 7 6 5 4 4 4 4 4 5 5 6 5 5 4 4 4 4 5 5 5 5 5 5 5
2 2 3 3 2 3 4 6 6 6 5 5 6 6 5 4 5 5 5 5 4 4 4 4 4 5 6 7 6 5 4 4 3 2 4 5 6 6 6 6 7 7 7 7 7 7 6 5 4 4 4 5 5 5 6 6 6 5 5 5 5 4 4 5 5 5 5 6 6
3 3 3 4 5 6 6 6 7 6 6 6 8 8 7 6 6 6 6 5 4 4 4 4 5 6 6 6 5 4 3 3 3 4 5 6 6 6 6 7 7 8 8 7 7 7 6 6 5 5 5 5 5 6 6 6 6 6 6 6 5 5 5 5 5 5 5 7 7
4 4 4 5 6 7 7 7 7 7 6 6 7 8 8 7 7 7 6 5 5 4 4 4 6 6 5 4 3 2 2 3 4 5 6 6 7 7 7 8 8 8 8 8 7 7 7 6 5 5 5 5 5 5 6 7 7 7 7 7 6 5 5 5 5 5 5 7 7
4 5 5 6 7 7 7 7 8 8 8 7 8 8 8 8 8 7 7 5 4 4 4 4 5 5 4 3 1 1 2 4 5 6 7 7 8 8 8 8 9 9 8 8 8 8 8 6 5 5 5 5 5 5 6 7 7 7 7 6 5 5 5 5 5 5 6 7 7
4 5 5 7 7 8 8 8 8 9 9 8 8 8 8 8 7 7 6 5 4 4 4 4 4 3 2 1 1 2 4 5 7 7 8 8 8 9 9 8 8 8 8 7 6 7 6 5 5 5 5 4 5 6 6 6 7 7 7 5 5 6 6 6 6 6 6 6 8
5 5 5 6 7 8 8 8 8 8 8 8 8 7 7 7 6 6 5 4 4 4 4 3 3 2 2 2 3 4 5 6 7 7 8 7 8 8 8 7 7 7 7 6 5 4 4 4 4 5 5 5 5 6 6 6 7 7 7 6 6 6 7 7 7 7 7 7 8
7 6 6 7 7 8 8 7 6 6 7 7 7 6 6 6 5 5 5 5 4 4 3 3 3 2 3 3 4 5 6 7 7 7 6 6 6 6 6 6 6 6 6 5 4 4 4 4 5 6 6 6 6 6 6 7 7 8 8 7 7 7 8 8 8 8 7 7 8
7 7 7 7 8 8 8 7 6 5 6 6 5 5 5 4 4 4 5 5 4 4 3 3 3 3 3 4 5 6 6 6 6 6 6 6 6 6 5 5 5 6 6 6 5 4 5 6 6 7 8 8 7 7 7 8 8 8 9 9 9 8 9 9 9 8 8 8 8
7 7 7 7 7 7 7 6 5 5 5 5 5 4 4 4 4 4 4 5 4 3 3 3 3 3 3 5 6 6 6 6 6 6 6 6 6 6 6 6 6 6 6 6 5 5 6 7 7 8 8 8 8 8 8 8 8 8 8 9 9 9 9 9 9 8 8 8 9
7 7 7 6 6 6 5 5 4 4 4 4 4 4 4 4 4 4 4 4 4 3 3 2 2 2 4 5 5 6 6 6 6 6 7 7 6 6 6 6 7 7 7 7 6 6 7 7 8 8 8 9 9 9 8 8 8 8 8 8 9 9 9 9 8 8 8 8 8
7 6 6 5 5 4 4 4 4 4 4 4 4 4 4 4 4 4 4 4 4 3 2 1 2 3 3 4 5 6 6 6 7 7 7 7 7 7 7 7 7 7 7 7 7 7 7 7 7 8 8 8 9 9 9 8 8 8 8 8 9 9 9 9 8 8 8 8 8
6 6 5 4 5 4 4 4 3 4 4 4 4 4 4 3 3 3 4 4 3 2 1 2 3 3 4 5 5 6 6 7 7 6 7 7 7 7 7 8 8 8 7 7 7 7 8 7 7 7 8 8 8 8 8 8 8 8 8 8 8 9 9 9 9 9 9 9 9
6 5 4 4 4 4 4 4 4 4 4 4 4 4 4 3 3 3 3 3 3 3 3 4 5 5 6 6 6 5 5 6 6 6 6 7 7 8 8 8 7 7 7 7 7 8 8 9 8 8 8 8 8 8 8 8 8 8 9 9 9 9 9 9 9 9 9 9 10
5 4 4 4 4 4 4 4 4 4 4 4 4 4 4 4 4 4 4 3 4 5 5 6 6 6 6 7 6 5 4 4 5 6 7 7 7 7 7 7 7 7 7 7 8 8 9 9 9 9 9 9 9 9 9 9 9 9 9 9 9 9 9 10 9 9 9 10 10
4 4 4 3 4 4 4 4 4 4 3 3 4 4 4 4 4 4 3 3 4 4 5 6 5 5 5 5 4 4 4 4 5 6 7 7 7 7 7 7 7 7 7 8 8 9 9 9 9 9 9 9 9 10 10 9 9 10 10 9 9 10 10 10 10 10 10 10 11
4 3 3 3 3 3 3 2 3 3 3 3 3 3 3 2 2 1 0 1 2 3 4 4 4 4 4 4 5 5 5 4 6 7 7 7 7 7 7 7 7 8 8 8 9 9 10 10 10 10 9 9 10 10 10 10 10 10 10 9 9 10 10 10 10 10 10 10 11
2 2 2 2 2 2 2 2 2 2 2 2 3 3 3 3 3 2 2 3 3 4 5 5 5 5 5 5 5 5 5 5 6 6 6 6 7 7 7 7 7 8 8 9 9 9 9 10 10 9 9 9 10 10 10 10 10 10 10 10 10 10 10 10 10 10 10 10 10
3 3 3 3 4 4 4 4 4 4 4 4 4 5 4 4 3 3 4 4 5 5 6 6 5 5 5 5 6 6 7 7 7 7 6 6 7 7 7 7 8 8 8 8 8 9 9 9 9 9 9 9 10 10 10 10 10 10 10 10 10 10 10 10 10 10 10 10 9
4 4 4 5 6 6 6 6 6 6 6 6 6 5 4 4 4 5 5 6 6 6 6 5 4 4 5 5 6 7 7 7 7 7 7 7 7 7 7 7 7 8 8 7 8 8 8 7 8 8 8 9 9 9 9 9 9 9 9 9 9 9 9 9 9 9 9 9 9
5 6 6 7 7 7 6 6 6 5 5 5 4 3 4 5 6 6 6 7 7 7 6 5 4 4 4 5 6 7 7 6 7 7 7 7 7 7 7 7 6 6 6 6 9 10 11 9 8 8 7 7 7 7 7 7 7 7 7 7 8 8 8 9 9 9 9 9 9
6 6 6 5 4 3 3 3 3 3 2 2 2 4 6 7 7 7 7 7 7 6 4 3 3 4 4 5 5 6 5 5 6 6 7 7 7 7 6 6 6 5 6 7 9 11 12 12 11 9 7 6 6 6 5 5 5 5 5 6 6 7 7 8 8 8 8 8 9
5 4 3 2 1 2 2 2 2 3 3 4 5 7 8 8 8 8 7 7 5 3 2 3 4 4 4 4 5 5 5 5 6 6 6 7 7 7 6 6 6 5 6 8 10 11 11 12 11 10 8 5 4 4 4 4 4 4 4 5 5 6 7 8 9 9 9 9 9
4 3 4 4 4 5 5 5 5 5 6 7 8 8 9 9 8 7 5 3 2 2 3 4 4 4 3 3 4 5 5 5 5 6 6 6 7 7 7 6 6 6 7 9 10 11 11 11 11 11 9 6 4 3 3 3 3 4 4 5 6 6 7 8 8 9 10 11 11
3 4 4 4 5 5 5 5 6 6 7 8 9 9 9 8 6 4 2 2 3 3 4 4 4 3 2 3 4 5 5 5 5 5 5 6 6 6 7 7 6 7 8 10 10 11 11 11 11 11 10 8 4 2 2 2 3 4 4 5 6 7 7 8 9 9 10 10 11
3 4 4 5 5 5 5 6 7 8 8 8 9 8 7 4 2 2 2 3 4 4 4 4 3 3 3 4 4 4 5 5 5 5 5 5 6 6 6 6 6 7 8 10 11 11 12 12 11 11 10 8 5 3 3 3 3 4 5 6 7 9 9 10 10 11 11 11 11
4 4 5 5 5 6 6 7 8 8 8 8 7 5 3 1 2 2 3 3 4 4 4 3 3 4 5 4 4 4 5 5 5 5 5 6 6 7 7 7 7 8 9 10 11 12 12 12 11 10 9 8 6 5 4 4 5 5 6 7 9 10 11 11 11 12 13 13 13
4 4 5 5 6 6 7 7 7 7 7 6 4 2 1 1 2 2 3 3 3 4 4 4 4 4 5 4 4 4 4 4 5 5 6 6 7 7 7 7 7 7 8 11 11 11 11 11 10 10 10 10 8 6 5 6 6 7 7 9 10 11 11 10 11 12 13 13 13
5 5 5 5 6 6 6 6 5 5 3 2 1 1 1 2 2 3 3 3 3 4 4 4 4 4 4 4 4 4 4 5 5 6 6 7 6 6 7 7 7 7 9 10 10 10 10 10 10 11 11 12 9 7 7 7 6 7 8 9 9 10 11 11 11 12 13 14 13
6 6 6 6 6 5 4 3 2 1 0 1 0 1 1 2 3 3 3 3 3 3 3 3 3 3 3 3 3 4 5 5 6 6 6 7 7 7 7 6 6 7 9 9 9 9 10 10 11 12 13 13 10 8 7 8 7 7 8 9 10 10 11 12 12 13 14 14 14
7 7 7 7 6 5 3 1 0 1 1 1 1 2 2 3 3 4 4 3 2 2 2 2 2 2 3 3 3 4 5 5 6 7 7 7 6 7 7 7 6 7 8 8 9 9 10 12 13 14 14 12 9 7 7 8 8 9 9 10 11 11 12 13 13 14 14 14 14
8 7 7 6 5 3 1 0 0 0 0 1 2 3 3 3 3 3 2 2 1 1 2 2 2 3 3 4 4 4 5 5 6 7 7 7 6 6 6 7 6 6 7 8 9 10 12 13 14 15 15 12 8 7 7 8 8 9 10 11 12 12 13 14 14 14 14 14 14
4 4 4 2 1 1 1 1 0 1 2 2 3 3 3 3 3 2 1 1 1 2 2 3 3 4 4 4 5 5 5 6 6 7 7 7 6 6 6 6 5 5 6 8 10 11 13 15 16 16 15 10 8 8 8 8 8 9 10 11 12 13 13 13 13 13 14 14 14
4 4 4 3 2 1 0 0 1 2 3 4 3 3 2 2 2 2 1 1 1 2 3 3 4 4 5 5 5 6 6 6 6 6 7 7 7 6 5 5 5 5 6 8 11 13 15 16 18 18 16 10 9 8 8 8 8 9 10 11 12 12 13 12 11 11 12 13 15
5 4 4 3 2 0 1 2 2 3 3 3 3 2 1 1 1 1 1 1 1 2 3 3 4 5 5 6 5 6 6 7 6 6 6 7 6 5 4 4 4 5 6 9 12 14 16 18 19 19 17 12 10 9 8 8 9 10 10 11 11 12 12 11 10 9 9 11 14
4 4 3 2 1 1 2 3 3 3 2 2 1 1 1 1 1 2 2 2 2 2 3 3 5 6 6 6 6 6 7 7 7 7 6 6 5 5 4 3 4 5 7 10 13 15 17 19 20 20 18 13 10 8 8 8 9 10 10 10 10 10 9 8 7 6 6 7 9
3 3 2 1 1 2 2 2 2 2 1 1 1 1 1 1 1 2 2 2 2 3 3 4 5 6 7 6 6 6 7 7 7 7 5 4 4 4 3 3 5 6 7 9 13 15 18 19 20 21 19 14 10 9 8 8 8 9 9 9 8 7 6 5 4 4 5 5 6
Wind_Direction
266 258 248 235 226 220 215 207 191 176 167 161 156 152 147 139 135 131 126 121 121 119 115 111 108 104 95 84 80 78 75 72 70 65 57 44 25 359 336 321 309 300 292 287 282 278 272 264 262 262 264 264 264 264 263 260 260 261 263 264 264 264 264 264 265 265 266 266 266
277 270 259 240 223 211 198 178 156 144 140 136 133 134 134 128 125 121 116 113 113 112 109 105 102 97 90 82 80 81 79 76 69 59 46 26 359 336 319 306 296 288 282 278 274 269 264 258 258 261 265 267 267 268 267 263 261 264 267 268 267 268 268 268 267 266 266 267 268
283 279 267 238 209 192 179 165 150 140 132 121 113 111 112 111 113 113 111 108 104 102 100 99 95 91 87 83 80 78 75 70 61 49 31 2 331 309 295 284 278 274 271 267 262 257 254 251 253 257 263 266 266 266 266 266 263 264 266 267 268 270 271 272 270 269 270 271 270
292 280 251 212 194 184 174 161 145 135 126 112 104 100 99 102 105 106 105 100 96 95 97 99 94 90 86 81 73 68 64 58 50 34 3 324 297 281 271 265 264 264 262 259 254 253 252 252 255 259 262 263 263 263 263 265 264 264 264 265 267 269 270 271 271 271 271 272 270
334 342 166 172 185 176 159 139 128 122 116 107 104 101 99 100 102 102 100 97 98 100 102 101 95 86 76 69 63 58 52 44 33 6 320 289 271 262 258 257 259 260 258 254 253 253 255 257 261 264 263 261 261 261 261 261 262 264 265 267 267 267 267 267 268 268 268 270 269
42 48 55 74 79 90 102 112 111 110 106 103 105 105 105 106 105 105 105 106 106 103 98 91 82 73 65 59 53 45 35 21 0 320 285 267 260 257 258 261 260 258 256 253 253 255 257 259 265 266 265 263 263 262 261 259 260 262 264 267 265 264 263 263 264 265 265 266 267
91 78 71 76 79 83 90 102 103 102 100 100 105 108 109 109 107 106 105 103 99 93 86 77 69 65 61 53 45 33 17 352 315 284 270 263 261 260 261 262 259 257 254 253 255 258 260 258 263 265 264 263 263 261 258 256 256 257 260 262 261 261 260 260 261 262 263 263 264
93 88 83 81 89 93 98 101 102 101 101 102 105 107 107 104 102 99 94 87 84 81 78 73 69 65 60 51 39 19 343 303 280 270 264 262 262 262 261 259 257 255 254 254 256 258 259 258 259 260 260 260 261 260 257 254 253 254 256 258 260 259 258 259 260 261 262 262 263
81 81 82 81 85 90 93 96 99 101 103 103 102 101 99 96 94 90 86 81 78 74 74 75 73 68 61 51 29 322 282 270 265 261 258 256 257 257 257 256 255 255 254 254 255 255 255 256 257 256 256 256 257 258 256 253 253 254 255 257 260 262 261 260 260 262 263 264 266
81 79 81 85 85 87 88 90 93 96 97 97 96 94 92 91 91 90 89 89 82 79 81 87 86 85 86 115 240 251 253 255 254 252 251 250 251 252 253 253 253 253 254 253 253 251 251 252 254 255 255 254 255 256 257 255 255 255 256 259 262 264 265 264 263 264 265 266 267
77 75 77 83 86 86 85 85 87 89 91 92 92 94 95 97 99 101 102 99 95 97 103 111 118 138 176 207 229 240 244 246 246 246 248 249 250 251 251 251 251 252 253 253 252 250 249 252 256 259 260 260 259 260 262 262 260 260 261 264 265 266 268 268 267 267 267 268 268
75 75 76 79 83 84 84 83 84 87 89 92 96 100 105 110 114 114 111 107 110 118 128 134 150 178 204 222 233 240 244 245 247 249 253 255 255 255 254 253 253 256 258 261 262 264 266 268 270 272 272 271 270 269 269 268 268 268 268 269 269 269 270 270 269 269 268 268 269
83 83 82 82 84 85 85 86 88 90 95 99 104 110 115 119 118 115 114 115 124 133 143 147 164 188 212 228 237 241 244 247 252 257 261 264 264 264 264 265 267 270 272 274 275 277 278 277 276 275 275 275 274 272 270 270 270 270 271 272 272 271 270 270 269 268 268 268 269
92 93 92 90 90 90 91 93 95 98 102 106 109 111 111 110 107 107 111 120 129 134 137 141 159 187 212 226 235 239 244 251 257 262 266 268 269 270 272 273 275 277 278 279 278 276 275 274 273 273 273 273 273 272 270 269 269 269 270 270 271 270 269 269 269 268 269 269 269
98 99 100 98 96 96 98 100 102 104 105 107 107 106 104 101 100 101 107 114 117 117 119 130 168 202 220 229 237 244 251 257 261 265 267 268 269 270 271 273 275 276 276 277 275 273 271 270 270 270 271 272 273 273 273 271 270 269 268 269 269 269 270 270 270 270 269 268 269
104 104 104 103 102 102 103 105 106 107 108 110 108 106 104 105 105 103 103 104 102 101 108 149 203 223 232 239 246 252 257 260 261 262 263 265 266 268 269 270 271 272 273 273 274 273 272 270 270 270 271 273 274 275 275 274 273 271 270 270 270 270 271 271 271 271 270 268 268
108 108 107 108 109 112 114 116 117 118 120 122 119 117 116 115 112 109 108 107 107 118 157 207 223 233 240 245 248 250 252 254 255 256 258 260 262 264 266 267 268 269 270 272 274 275 276 276 275 274 273 274 275 275 275 275 274 273 271 270 270 270 270 270 271 271 270 270 268
110 111 112 114 121 127 133 137 138 139 139 139 137 135 134 133 129 126 125 129 143 171 199 218 227 232 237 240 241 242 244 246 249 252 255 258 260 262 264 265 266 268 270 272 274 277 278 279 279 279 278 277 276 276 275 274 274 272 271 270 270 269 269 269 269 269 269 269 269
116 120 125 132 142 149 153 156 156 155 154 152 152 152 152 151 148 146 149 158 176 194 208 220 227 231 234 236 237 239 241 244 250 254 257 259 261 262 264 266 268 270 272 274 276 277 278 279 279 279 279 278 277 276 274 273 272 271 270 269 269 268 268 268 267 267 267 267 268
128 135 144 155 162 165 166 165 162 159 156 155 155 156 157 155 149 149 157 178 195 206 214 222 228 233 238 240 244 249 254 255 257 259 260 260 262 263 265 268 271 273 275 276 277 278 278 278 278 277 277 276 275 275 274 272 271 270 269 268 267 266 265 265 264 264 264 264 265
140 147 153 157 155 154 152 148 141 136 134 135 137 136 130 112 96 90 108 243 241 240 239 241 246 252 258 262 266 269 269 268 263 261 261 261 262 264 266 269 272 275 277 277 277 277 277 276 275 275 274 273 273 272 271 271 270 269 267 266 265 263 262 262 261 262 262 262 263
129 124 116 108 105 102 99 90 88 88 88 88 81 69 53 37 18 352 315 288 275 269 267 268 270 271 272 275 277 276 273 269 263 261 261 262 265 267 269 272 274 276 277 277 276 275 275 274 273 272 271 271 270 269 268 268 267 267 265 264 263 262 261 260 260 261 262 263 265
81 74 68 64 57 52 46 40 35 32 31 31 29 26 19 3 335 303 282 272 270 271 272 273 272 273 275 278 277 273 268 265 264 265 265 266 269 271 273 274 275 275 275 274 274 273 273 273 272 271 270 269 269 268 267 265 265 265 265 265 265 264 263 262 261 262 263 264 266
62 54 46 38 31 27 22 16 12 12 14 15 13 6 350 320 294 279 272 270 271 270 270 268 269 274 279 280 272 265 261 262 267 270 272 273 273 274 275 275 274 273 272 271 270 268 268 269 270 270 270 268 268 268 267 267 267 268 269 270 270 270 270 268 266 265 265 266 266
54 47 40 34 26 18 10 2 360 1 4 6 356 333 300 279 272 269 269 270 269 267 265 266 275 284 282 273 264 260 260 264 268 272 275 276 275 275 274 275 273 272 271 271 270 268 268 268 269 271 272 273 273 274 274 273 273 274 275 276 278 279 280 280 279 277 275 274 274
59 53 48 42 31 16 356 338 335 333 326 303 270 258 255 255 257 259 260 261 260 260 265 282 292 286 274 263 262 265 267 270 271 272 273 275 275 275 275 274 273 273 273 273 272 272 272 273 273 275 276 278 279 279 280 280 278 279 280 282 284 285 286 287 286 285 283 281 279
82 85 93 114 147 196 220 229 232 232 232 233 236 240 243 245 248 249 250 250 253 267 294 306 288 272 262 260 267 272 274 274 273 271 270 270 272 273 275 275 274 274 274 275 275 276 278 279 281 282 282 280 277 275 276 279 280 282 283 284 284 283 283 283 283 282 281 280 278
119 142 162 176 190 200 207 209 212 217 223 227 231 235 238 239 241 242 244 252 282 305 305 286 267 258 256 265 271 272 272 272 272 271 270 271 272 273 274 276 276 276 277 278 279 281 284 286 288 290 292 291 284 277 275 278 280 281 281 281 280 278 277 276 278 279 280 282 281
153 172 184 193 203 209 213 215 219 222 225 228 231 233 235 236 238 245 267 302 306 294 277 261 256 258 268 275 273 273 272 272 271 272 274 277 278 278 277 277 278 278 280 282 284 287 289 291 293 295 298 303 299 291 281 277 280 282 282 280 279 278 278 278 280 282 283 284 283
186 196 202 209 214 218 221 222 224 225 227 229 230 232 233 236 252 284 298 294 279 265 256 252 260 270 275 274 274 275 275 274 274 275 279 281 282 282 281 280 281 282 284 286 288 290 292 293 295 298 303 311 309 302 290 283 285 285 286 285 283 283 283 283 283 283 282 281 280
207 212 216 220 223 226 227 228 228 229 229 230 230 229 231 249 279 283 278 269 260 255 256 263 274 276 276 274 275 276 277 278 280 281 282 282 282 282 282 283 283 285 287 289 290 291 292 294 298 303 309 315 312 306 298 292 290 289 287 286 286 285 285 284 282 280 278 277 276
221 225 228 231 233 235 236 236 237 236 234 231 225 222 227 257 261 259 257 254 258 264 272 280 282 282 281 282 281 281 281 283 284 284 282 281 282 283 285 286 286 286 288 290 291 292 295 299 305 311 315 317 313 307 302 296 292 289 286 284 283 282 280 278 276 274 272 270 268
228 232 235 238 240 243 245 245 245 243 238 227 217 217 237 246 248 252 255 257 264 270 276 279 280 280 281 282 284 285 286 285 284 284 284 283 284 285 288 289 288 288 289 291 292 296 302 309 315 317 317 317 313 308 302 296 291 287 284 281 278 275 272 269 267 266 264 263 263
228 232 237 242 245 247 250 250 252 259 352 19 330 265 247 245 253 259 263 264 267 270 272 270 269 268 269 272 279 284 287 287 287 287 286 286 287 288 290 290 288 290 292 294 299 305 312 317 318 317 316 314 310 305 299 293 288 283 279 276 273 270 267 264 263 262 262 261 261
226 229 234 240 244 247 250 250 17 60 46 340 281 266 258 255 260 263 265 267 273 280 283 279 273 276 280 284 286 288 289 290 289 288 287 288 290 291 290 289 288 291 296 300 308 314 317 318 317 315 313 311 306 299 293 288 284 280 276 274 272 269 266 264 263 262 261 261 260
220 220 224 231 235 237 234 131 96 78 292 270 269 268 267 267 267 267 267 272 295 306 304 298 300 301 300 298 294 291 287 286 287 288 289 289 291 291 290 289 288 294 301 308 314 317 317 316 314 313 311 308 302 295 289 285 282 278 275 273 271 268 266 264 263 262 260 260 258
200 190 186 187 176 133 89 79 17 307 285 273 267 266 266 269 270 272 278 311 333 321 309 304 304 300 296 291 288 285 282 281 285 288 290 290 289 289 288 288 290 295 304 312 316 317 316 315 314 312 311 306 299 293 289 285 282 278 275 273 271 268 266 264 263 261 260 258 257
99 108 109 100 88 77 61 302 282 275 270 265 262 260 261 263 272 280 292 332 327 313 304 300 295 290 284 282 282 283 283 283 284 286 288 289 286 285 285 289 293 299 307 316 318 318 317 317 314 313 310 303 298 293 289 286 281 278 275 273 272 269 266 263 262 261 260 259 259
76 81 82 79 75 54 274 268 264 262 260 260 262 269 277 285 285 288 293 303 302 296 292 290 285 282 280 282 286 288 289 288 286 286 286 285 282 282 285 294 300 306 313 319 320 320 319 318 315 312 309 302 298 294 290 286 282 279 276 274 273 270 268 266 265 264 264 264 266
61 60 60 54 14 283 273 272 269 264 260 261 280 294 298 295 288 292 298 303 296 288 284 283 282 282 283 287 290 292 292 292 291 289 285 282 282 289 298 306 310 312 316 320 322 321 320 318 314 312 309 303 300 295 291 287 284 281 279 276 275 275 275 275 274 274 274 274 273
41 38 28 351 305 290 287 288 288 288 294 326 320 305 290 289 295 302 306 307 297 290 286 285 285 287 288 291 292 293 293 294 294 292 289 284 287 300 313 318 318 317 318 321 323 322 319 316 313 312 310 305 303 299 295 292 288 284 283 283 286 291 296 301 300 295 289 284 280